Location: Nelson
(41.2830°S, 173.2830°E)
Time: 06:04:26
(UTC+12:00)

Meteor 2-3 Rocket - Pass Details

Date: 14 May 2021
Orbit: 841 x 886 km, 81.2° (Epoch: 16 June)

Event Time Altitude Azimuth Distance (km) Brightness Sun altitude
Rises 19:18:26 0° 358° (N) 3,390 6.9 -22.4°
Reaches altitude 10° 19:20:49 10° 359° (N) 2,466 6.2 -22.9°
Maximum altitude 19:26:24 74° 83° (E) 894 3.6 -23.9°
Enters shadow 19:29:42 26° 163° (SSE) 1,641 5.0 -24.5°
